User: anonymous   Login
Location: Newark
(50.4348°N, 30.5552°E)
Time: 07:56:47
(UTC+00:00)
Language:

Courier 1B - Orbit

View from above orbital plane
View from above orbital plane
View from above satellite
View from above satellite

Ground track
Ground track

The orbit data is extracted from the following two-line orbital elements,

1    58U 60013A   20020.60635033 +.00000082 +00000-0 -75717-5 0  9996
2    58 028.3273 129.7670 0165043 276.9797 081.2002 13.46320528918542
Epoch (UTC): 20 January 2020 14:33:08
Eccentricity: 0.0165043
inclination: 28.3273°
perigee height: 962 km
apogee height: 1209 km
right ascension of ascending node: 129.7670°
argument of perigee: 276.9797°
revolutions per day: 13.46320528
mean anomaly at epoch: 81.2002°
orbit number at epoch: 91854

The dashed part of the orbit path shows where the satellite is in the earth's shadow,  

DLR